TimeCDT,TemperatureF,Dew PointF,Humidity,Sea Level PressureIn,VisibilityMPH,Wind Direction,Wind SpeedMPH,Gust SpeedMPH,PrecipitationIn,Events,Conditions,WindDirDegrees,DateUTC
12:56 AM,73.0,71.1,93,29.95,8.0,Calm,Calm,-,N/A,,Clear,0,2013-10-03 05:56:00
1:56 AM,72.0,70.0,93,29.95,9.0,Calm,Calm,-,N/A,,Clear,0,2013-10-03 06:56:00
2:38 AM,71.6,69.8,94,29.96,6.0,Calm,Calm,-,N/A,,Mostly Cloudy,0,2013-10-03 07:38:00
2:56 AM,72.0,71.1,97,29.94,9.0,Calm,Calm,-,N/A,,Mostly Cloudy,0,2013-10-03 07:56:00
3:22 AM,71.6,71.6,100,29.94,9.0,Calm,Calm,-,N/A,,Partly Cloudy,0,2013-10-03 08:22:00
3:56 AM,72.0,70.0,93,29.93,6.0,Calm,Calm,-,N/A,,Clear,0,2013-10-03 08:56:00
4:44 AM,71.6,69.8,94,29.94,4.0,Calm,Calm,-,N/A,,Partly Cloudy,0,2013-10-03 09:44:00
4:56 AM,71.1,70.0,96,29.93,5.0,Calm,Calm,-,0.01,,Partly Cloudy,0,2013-10-03 09:56:00
5:10 AM,71.6,69.8,94,29.94,5.0,Calm,Calm,-,N/A,,Mostly Cloudy,0,2013-10-03 10:10:00
5:33 AM,71.6,71.6,100,29.94,6.0,Calm,Calm,-,N/A,,Overcast,0,2013-10-03 10:33:00
5:47 AM,71.6,71.6,100,29.95,1.8,Calm,Calm,-,N/A,,Overcast,0,2013-10-03 10:47:00
5:56 AM,72.0,71.1,97,29.94,1.0,Calm,Calm,-,N/A,,Mist,0,2013-10-03 10:56:00
6:07 AM,71.6,71.6,100,29.95,0.8,Calm,Calm,-,N/A,,Mist,0,2013-10-03 11:07:00
6:56 AM,73.0,72.0,96,29.95,0.8,Calm,Calm,-,N/A,,Mist,0,2013-10-03 11:56:00
7:05 AM,73.4,71.6,94,29.96,1.0,Calm,Calm,-,N/A,,Mist,0,2013-10-03 12:05:00
7:21 AM,73.4,71.6,94,29.96,0.8,Calm,Calm,-,N/A,,Overcast,0,2013-10-03 12:21:00
7:32 AM,73.4,71.6,94,29.96,1.0,Calm,Calm,-,N/A,,Overcast,0,2013-10-03 12:32:00
7:39 AM,73.4,71.6,94,29.96,0.8,Variable,3.5,-,N/A,,Overcast,0,2013-10-03 12:39:00
7:46 AM,73.4,71.6,94,29.97,2.5,Calm,Calm,-,N/A,,Overcast,0,2013-10-03 12:46:00
7:53 AM,73.4,71.6,94,29.97,4.0,Calm,Calm,-,N/A,,Overcast,0,2013-10-03 12:53:00
7:56 AM,73.0,72.0,96,29.96,4.0,Calm,Calm,-,N/A,,Overcast,0,2013-10-03 12:56:00
9:56 AM,75.0,73.9,96,29.99,10.0,Calm,Calm,-,N/A,,Overcast,0,2013-10-03 14:56:00
10:07 AM,75.2,73.4,94,30.00,10.0,Variable,3.5,-,N/A,,Overcast,0,2013-10-03 15:07:00
10:56 AM,78.1,73.9,87,30.00,10.0,Calm,Calm,-,N/A,,Overcast,0,2013-10-03 15:56:00
11:15 AM,82.4,73.4,74,30.00,10.0,Calm,Calm,-,N/A,,Mostly Cloudy,0,2013-10-03 16:15:00
11:26 AM,82.4,73.4,74,30.00,10.0,Variable,5.8,-,N/A,,Partly Cloudy,0,2013-10-03 16:26:00
11:56 AM,81.0,72.0,74,29.99,10.0,Variable,3.5,-,N/A,,Mostly Cloudy,0,2013-10-03 16:56:00
12:56 PM,84.0,70.0,63,29.97,10.0,ESE,4.6,-,N/A,,Scattered Clouds,120,2013-10-03 17:56:00
1:56 PM,87.1,70.0,57,29.94,10.0,Variable,4.6,-,N/A,,Clear,0,2013-10-03 18:56:00
2:56 PM,89.1,69.1,52,29.92,10.0,Variable,3.5,-,N/A,,Scattered Clouds,0,2013-10-03 19:56:00
3:56 PM,86.0,69.1,57,29.91,10.0,Variable,3.5,-,N/A,,Scattered Clouds,0,2013-10-03 20:56:00
4:56 PM,84.9,71.1,63,29.90,10.0,SSE,4.6,-,N/A,,Mostly Cloudy,160,2013-10-03 21:56:00
5:56 PM,78.1,75.0,90,29.91,10.0,Calm,Calm,-,0.01,,Mostly Cloudy,0,2013-10-03 22:56:00
6:56 PM,77.0,73.9,90,29.91,10.0,Calm,Calm,-,N/A,,Clear,0,2013-10-03 23:56:00
9:56 PM,73.9,72.0,93,29.94,10.0,Calm,Calm,-,N/A,,Partly Cloudy,0,2013-10-04 02:56:00
11:56 PM,73.0,72.0,96,29.94,9.0,Calm,Calm,-,N/A,,Clear,0,2013-10-04 04:56:00